VK4RM-13 Weather Reports


Display with metric or nautical units.
time (UTC)temp
F
wind
direction
speed
MPH
gust
MPH
rain 1hr
in
rain 24hr
in
rain mn
in
humidity
%
barometer
mb
20260509205626 63 189 0.0 0.0 0.00 0.00 0.00 92 1001.1
20260509204626 63 189 0.0 0.0 0.00 0.00 0.00 92 1001.0
20260509203626 63 188 0.0 0.0 0.00 0.00 0.00 91 1001.0
20260509202626 63 189 0.0 0.0 0.00 0.00 0.00 91 1001.0
20260509201626 63 190 0.0 1.0 0.00 0.00 0.00 90 1000.7
20260509200626 64 190 0.0 0.0 0.00 0.00 0.00 90 1000.6
20260509195626 64 135 0.0 0.0 0.00 0.00 0.00 90 1000.3
20260509194626 64 158 0.0 0.0 0.00 0.00 0.00 90 1000.1
20260509193626 65 159 0.0 0.0 0.00 0.00 0.00 89 1000.1
20260509192626 65 164 0.0 0.0 0.00 0.00 0.00 89 1000.2
20260509191626 65 168 0.0 4.0 0.00 0.00 0.00 89 1000.2
20260509190626 65 38 0.0 0.0 0.00 0.00 0.00 89 1000.2
20260509185626 65 38 1.0 3.0 0.00 0.00 0.00 89 1000.1
20260509184626 65 340 0.0 4.0 0.00 0.00 0.00 90 1000.0
20260509183626 65 0 0.0 0.0 0.00 0.00 0.00 90 999.9
20260509182626 65 0 0.0 0.0 0.00 0.00 0.00 90 999.6
20260509181626 65 0 0.0 2.0 0.00 0.00 0.00 91 999.6
20260509180626 65 319 0.0 0.0 0.00 0.00 0.00 92 999.6
20260509175626 65 355 0.0 1.0 0.00 0.00 0.00 92 999.6
20260509174626 65 0 0.0 5.0 0.00 0.00 0.00 93 999.6
20260509173626 64 30 0.0 0.0 0.00 0.00 0.00 93 999.5
20260509172626 64 337 0.0 0.0 0.00 0.00 0.00 93 999.6
20260509171626 64 337 0.0 2.0 0.00 0.00 0.00 93 999.6
20260509170626 63 5 0.0 1.0 0.00 0.00 0.00 92 999.6
20260509165626 63 321 0.0 0.0 0.00 0.00 0.00 92 999.7
20260509164626 64 321 0.0 0.0 0.00 0.00 0.00 92 999.6
20260509163626 64 347 0.0 0.0 0.00 0.00 0.00 92 999.7
20260509162626 64 347 0.0 0.0 0.00 0.00 0.00 92 999.8
20260509161626 64 346 0.0 0.0 0.00 0.00 0.00 92 999.9
20260509160626 64 346 0.0 0.0 0.00 0.00 0.00 92 1000.1
20260509155626 64 346 0.0 0.0 0.00 0.00 0.00 92 1000.2
20260509153626 64 36 0.0 0.0 0.00 0.00 0.00 92 1000.4
20260509152626 64 36 0.0 0.0 0.00 0.00 0.00 92 1000.3
20260509151627 63 36 0.0 0.0 0.00 0.00 0.00 92 1000.4
20260509150627 63 34 0.0 1.0 0.00 0.00 0.00 92 1000.5
20260509145627 63 355 0.0 0.0 0.00 0.00 0.00 92 1000.6
20260509144627 63 71 0.0 7.0 0.00 0.00 0.00 92 1000.5
20260509143627 63 315 0.0 0.0 0.00 0.00 0.00 91 1000.6
20260509142627 63 315 0.0 0.0 0.00 0.00 0.00 90 1000.7
20260509141627 64 315 0.0 0.0 0.00 0.00 0.00 90 1000.7
20260509140627 64 311 0.0 0.0 0.00 0.00 0.00 90 1000.7
20260509135627 64 311 0.0 0.0 0.00 0.00 0.00 90 1000.8
20260509134627 64 9 0.0 0.0 0.00 0.00 0.00 90 1000.9
20260509133627 64 336 0.0 2.0 0.00 0.00 0.00 91 1000.9
20260509132627 64 308 1.0 4.0 0.00 0.00 0.00 91 1000.9
20260509131627 63 333 2.0 9.0 0.00 0.00 0.00 94 1001.0
20260509130627 61 348 0.0 0.0 0.00 0.00 0.00 92 1001.1
20260509125627 61 347 0.0 0.0 0.00 0.00 0.00 92 1001.1
20260509124627 61 355 0.0 0.0 0.00 0.00 0.00 91 1001.2
20260509123627 61 355 0.0 0.0 0.00 0.00 0.00 91 1001.1
20260509122627 61 65 0.0 0.0 0.00 0.00 0.00 90 1001.3
20260509121627 61 68 0.0 0.0 0.00 0.00 0.00 90 1001.3
20260509120627 61 68 0.0 0.0 0.00 0.00 0.00 89 1001.3
20260509115636 61 68 0.0 0.0 0.00 0.00 0.00 89 1001.5
20260509114627 61 68 0.0 0.0 0.00 0.00 0.00 89 1001.5
20260509113627 61 68 0.0 0.0 0.00 0.00 0.00 88 1001.6
20260509112627 61 68 0.0 0.0 0.00 0.00 0.00 88 1001.7
20260509111630 61 68 0.0 0.0 0.00 0.00 0.00 88 1001.6
20260509110627 61 68 0.0 0.0 0.00 0.00 0.00 88 1001.6
20260509105627 61 68 0.0 0.0 0.00 0.00 0.00 87 1001.4
20260509104627 60 68 0.0 0.0 0.00 0.00 0.00 86 1001.5
20260509103627 60 68 0.0 0.0 0.00 0.00 0.00 86 1001.4
20260509102627 60 68 0.0 0.0 0.00 0.00 0.00 86 1001.4
20260509101627 60 68 0.0 0.0 0.00 0.00 0.00 85 1001.4
20260509100627 60 68 0.0 0.0 0.00 0.00 0.00 85 1001.3
20260509095627 60 68 0.0 0.0 0.00 0.00 0.00 84 1001.3
20260509094627 59 68 0.0 0.0 0.00 0.00 0.00 83 1001.2
20260509093627 59 68 0.0 0.0 0.00 0.00 0.00 83 1001.1
20260509092627 60 68 0.0 0.0 0.00 0.00 0.00 81 1001.0
20260509091627 60 68 0.0 0.0 0.00 0.00 0.00 80 1000.8
20260509090627 60 68 0.0 0.0 0.00 0.00 0.00 79 1000.8
20260509085627 61 68 0.0 0.0 0.00 0.00 0.00 79 1000.5
20260509084627 61 68 0.0 0.0 0.00 0.00 0.00 77 1000.4
20260509083630 61 68 0.0 0.0 0.00 0.00 0.00 75 1000.2
20260509082627 62 68 0.0 0.0 0.00 0.00 0.00 74 1000.1
20260509081628 62 68 0.0 0.0 0.00 0.00 0.00 73 1000.1
20260509080627 63 68 0.0 0.0 0.00 0.00 0.00 72 999.8
20260509075627 63 68 0.0 0.0 0.00 0.00 0.00 70 999.6
20260509074627 64 68 0.0 0.0 0.00 0.00 0.00 68 999.5
20260509073627 64 68 0.0 0.0 0.00 0.00 0.00 66 999.4
20260509072627 65 68 0.0 0.0 0.00 0.00 0.00 65 999.3
20260509071627 65 68 0.0 0.0 0.00 0.00 0.00 63 999.2
20260509070627 66 68 1.0 2.0 0.00 0.00 0.00 60 999.1
20260509065627 69 65 0.0 0.0 0.00 0.00 0.00 53 999.0
20260509064627 72 25 0.0 2.0 0.00 0.00 0.00 44 998.9
20260509063628 74 0 0.0 0.0 0.00 0.00 0.00 39 998.8
20260509062628 76 348 1.0 5.0 0.00 0.00 0.00 36 998.7
20260509061628 77 355 0.0 1.0 0.00 0.00 0.00 36 998.6
20260509060628 77 5 0.0 3.0 0.00 0.00 0.00 35 998.4
20260509055628 77 344 1.0 7.0 0.00 0.00 0.00 33 998.3
20260509054628 77 340 1.0 5.0 0.00 0.00 0.00 30 998.1
20260509053628 77 318 1.0 5.0 0.00 0.00 0.00 30 998.1
20260509052628 78 5 0.0 3.0 0.00 0.00 0.00 31 997.9
20260509051628 77 333 1.0 5.0 0.00 0.00 0.00 31 997.9
20260509050628 77 348 2.0 5.0 0.00 0.00 0.00 33 998.0
20260509045628 77 336 1.0 8.0 0.00 0.00 0.00 31 997.8
20260509044628 77 343 2.0 6.0 0.00 0.00 0.00 34 997.7
20260509043628 77 355 3.0 10.0 0.00 0.00 0.00 36 997.7
20260509042628 78 5 1.0 9.0 0.00 0.00 0.00 35 997.8
20260509041628 77 325 2.0 9.0 0.00 0.00 0.00 35 997.9
20260509040628 77 355 3.0 10.0 0.00 0.00 0.00 34 997.9
20260509035628 78 298 1.0 6.0 0.00 0.00 0.00 35 997.9
20260509034628 77 307 2.0 6.0 0.00 0.00 0.00 35 998.1
20260509033628 77 12 3.0 7.0 0.00 0.00 0.00 35 998.3
20260509032629 78 306 2.0 6.0 0.00 0.00 0.00 35 998.3
20260509031628 78 24 1.0 8.0 0.00 0.00 0.00 33 998.3
20260509030628 78 34 1.0 6.0 0.00 0.00 0.00 34 998.5
20260509025628 78 28 1.0 10.0 0.00 0.00 0.00 35 998.5
20260509024628 77 355 2.0 7.0 0.00 0.00 0.00 36 998.6
20260509023628 76 305 2.0 7.0 0.00 0.00 0.00 37 998.8
20260509022628 77 0 1.0 7.0 0.00 0.00 0.00 37 998.8
20260509021628 76 351 2.0 6.0 0.00 0.00 0.00 36 999.0
20260509020628 76 19 2.0 5.0 0.00 0.00 0.00 39 999.1
20260509015628 76 0 2.0 7.0 0.00 0.00 0.00 38 999.3
20260509014628 76 18 2.0 8.0 0.00 0.00 0.00 37 999.5
20260509013628 76 355 2.0 6.0 0.00 0.00 0.00 38 999.7
20260509012628 75 320 2.0 6.0 0.00 0.00 0.00 38 999.8
20260509011628 75 5 2.0 6.0 0.00 0.00 0.00 40 999.8
20260509010628 74 5 1.0 6.0 0.00 0.00 0.00 41 1000.1
20260509005628 74 338 1.0 8.0 0.00 0.00 0.00 39 1000.2
20260509004628 73 355 2.0 6.0 0.00 0.00 0.00 39 1000.4
20260509003628 73 355 2.0 7.0 0.00 0.00 0.00 40 1000.5
20260509002628 72 0 0.0 2.0 0.00 0.00 0.00 39 1000.6
20260509001628 71 346 3.0 7.0 0.00 0.00 0.00 39 1000.8
20260509000628 72 67 3.0 7.0 0.00 0.00 0.00 38 1000.8
20260508235628 71 10 1.0 5.0 0.00 0.00 0.00 39 1000.9
20260508234628 71 345 2.0 8.0 0.00 0.00 0.00 37 1000.9
20260508233628 70 36 1.0 4.0 0.00 0.00 0.00 37 1000.8
20260508232628 70 73 2.0 8.0 0.00 0.00 0.00 38 1000.8
20260508231628 69 5 1.0 6.0 0.00 0.00 0.00 39 1000.7
20260508230628 68 340 0.0 2.0 0.00 0.00 0.00 42 1000.6
20260508225628 67 59 1.0 6.0 0.00 0.00 0.00 41 1000.8
20260508224628 67 62 1.0 5.0 0.00 0.00 0.00 41 1000.6
20260508223628 67 277 0.0 2.0 0.00 0.00 0.00 44 1000.6
20260508222628 65 331 1.0 8.0 0.00 0.00 0.00 47 1000.6
20260508221628 63 332 1.0 4.0 0.00 0.00 0.00 56 1000.4
20260508220628 61 306 0.0 2.0 0.00 0.00 0.00 65 1000.4
20260508215629 59 316 0.0 2.0 0.00 0.00 0.00 72 1000.5
20260508214628 59 316 0.0 0.0 0.00 0.00 0.00 74 1000.4
20260508213629 57 316 0.0 2.0 0.00 0.00 0.00 79 1000.3
20260508212629 55 316 0.0 2.0 0.00 0.00 0.00 80 1000.2
20260508211629 53 27 0.0 0.0 0.00 0.00 0.00 81 1000.2